Dewpoint
25 18 16 18 19 18 17 19 20 21 23 25 25 25 19 19 21 21 20 21 22 25 30 31 30 32 33 36 40 42 41 41 44 42 39 37 36 37 38 38 40 42 45 46
21 17 19 22 21 19 19 19 17 22 24 26 25 23 19 21 23 24 26 27 28 29 30 32 32 33 34 36 39 39 37 34 39 39 35 34 34 34 36 37 37 39 42 45
20 18 21 20 20 22 21 17 19 21 25 26 24 20 20 19 22 23 24 26 28 28 28 30 31 32 33 34 35 35 34 34 33 33 34 33 34 34 33 33 34 34 37 40
21 17 20 23 21 22 21 20 23 24 25 21 25 17 20 22 21 23 23 24 25 27 29 30 30 31 31 31 32 33 34 35 36 36 35 35 34 34 34 34 35 35 36 37
20 17 21 24 23 24 24 28 28 27 26 25 24 18 20 22 20 23 25 26 26 27 27 27 28 30 32 33 35 37 38 39 39 39 39 38 37 38 39 39 38 39 38 38
26 24 24 24 25 28 29 29 26 28 26 21 24 22 23 23 23 25 27 28 28 28 28 29 32 33 35 38 38 39 39 39 39 39 40 39 39 39 38 37 38 39 40 39
29 28 30 28 28 29 29 26 16 19 20 20 26 22 25 27 27 29 30 32 33 33 30 34 35 37 38 38 38 39 39 39 39 40 40 39 36 36 35 36 37 38 39 35
27 20 30 31 28 27 28 28 22 13 18 22 26 21 25 29 31 31 33 34 34 34 35 36 37 37 38 38 38 39 39 39 39 40 40 39 35 34 35 36 37 38 37 35
29 24 32 33 33 30 28 27 30 26 27 25 25 27 27 30 31 32 33 33 34 35 36 37 37 38 38 38 39 39 39 39 39 40 40 35 34 33 33 34 35 35 35 37
33 27 31 31 32 31 29 30 26 27 21 20 24 24 23 28 29 31 33 35 35 35 37 37 38 39 39 39 40 40 40 39 40 40 35 33 33 34 33 33 33 34 36 38
32 31 25 28 28 29 29 29 30 30 29 26 24 24 30 29 31 32 35 37 37 35 36 38 39 40 40 40 40 40 40 39 40 35 33 33 33 33 32 31 33 34 37 38
34 30 25 25 30 33 32 29 29 23 24 28 27 24 30 31 33 35 37 37 38 38 37 38 39 40 40 40 40 40 40 39 39 34 34 33 33 31 30 31 32 35 34 34
33 29 20 15 26 29 30 32 31 30 29 27 23 22 29 30 32 37 37 38 38 39 39 39 39 40 40 40 40 41 40 39 35 36 36 35 33 29 28 30 31 32 31 33
35 31 25 18 21 27 29 31 32 31 29 27 26 26 28 30 31 37 38 38 39 39 39 39 40 40 40 39 40 41 40 37 36 38 38 36 33 31 33 36 36 36 36 35
34 31 31 31 31 32 32 32 32 32 31 29 28 29 31 32 35 37 38 39 39 38 39 39 39 36 36 37 40 41 39 37 37 38 38 36 35 37 38 37 36 35 34 33
36 30 33 31 33 32 31 32 32 33 33 33 32 32 33 37 38 36 37 38 38 39 39 34 32 29 31 38 41 39 37 36 38 37 36 37 39 37 37 36 35 34 34 35
35 33 31 22 30 30 21 23 29 30 31 28 25 26 35 36 34 35 37 37 38 37 34 32 31 35 39 38 37 36 36 37 37 37 37 38 38 37 37 37 35 34 25 20
34 33 31 28 29 21 22 29 29 28 28 29 29 31 37 35 35 37 38 37 36 34 33 33 37 36 35 35 35 36 36 34 33 34 32 30 29 30 28 22 20 20 19 18
35 33 29 27 26 27 27 26 27 28 27 30 31 36 35 35 36 35 38 35 35 33 35 36 34 34 34 34 35 35 33 29 29 31 28 24 23 21 20 20 20 19 18 18
34 32 31 28 25 22 24 26 35 35 26 32 36 33 33 35 33 35 37 36 34 36 35 34 34 34 34 34 36 37 35 23 25 24 23 23 22 22 21 19 19 18 19 20
29 30 30 29 27 28 29 29 30 25 25 35 35 35 35 35 37 36 33 34 36 34 33 34 33 32 33 35 36 35 35 27 23 24 24 23 23 22 20 20 19 20 20 20
24 23 24 26 25 22 29 31 29 29 34 35 35 36 39 38 35 31 30 35 35 30 31 33 33 32 35 33 29 25 25 22 24 24 23 24 24 23 20 20 20 20 19 18
27 27 26 28 27 30 31 32 33 34 36 36 38 38 36 34 31 28 31 35 33 30 31 33 33 32 29 26 25 25 27 26 24 23 23 24 24 22 21 19 19 20 20 19
32 34 31 31 32 32 35 37 37 38 38 40 40 37 34 30 30 31 33 34 29 30 31 34 32 30 29 28 30 27 25 24 23 23 23 23 23 22 21 19 20 20 20 19
37 37 36 35 36 37 38 38 39 41 39 37 37 34 32 32 32 32 34 31 29 30 32 34 32 31 29 28 26 25 25 25 23 23 23 23 23 23 23 19 20 21 21 21
38 37 35 33 35 37 38 40 38 35 34 30 31 32 33 33 32 33 32 31 30 30 32 33 31 30 27 24 25 25 26 25 24 24 23 23 22 22 21 20 20 21 20 21
Wind_Speed
7 11 7 5 2 1 1 2 5 3 2 13 11 13 16 13 13 12 11 6 4 5 3 3 4 8 10 10 12 15 15 14 8 7 7 9 14 11 13 15 18 17 17 19
6 7 1 7 6 3 2 5 6 8 4 4 11 9 7 13 9 10 12 11 8 7 6 7 7 9 12 13 16 15 17 12 12 7 3 3 5 7 11 12 15 17 19 19
6 2 4 4 8 10 6 1 3 6 11 2 10 3 12 7 9 11 11 5 5 8 9 7 6 8 9 13 15 13 9 8 7 7 9 8 7 9 10 14 14 18 18 20
4 4 7 9 5 3 4 0 7 12 6 1 6 3 8 8 6 8 4 5 7 5 1 4 7 8 8 5 6 7 7 9 8 6 6 7 10 15 14 17 14 20 19 19
1 4 6 7 3 1 5 12 4 2 3 2 7 2 6 7 5 5 8 7 4 5 8 8 7 8 8 8 9 10 9 10 9 9 10 14 16 15 15 18 19 18 20 18
3 2 3 3 3 4 10 5 5 4 2 1 1 3 6 4 4 8 8 8 9 11 10 8 9 10 11 14 14 13 15 15 18 19 16 13 15 18 18 18 19 16 14 13
6 4 4 5 5 5 13 8 2 1 2 2 3 1 4 5 14 15 16 16 19 14 11 10 15 15 15 17 17 17 19 20 20 19 19 19 20 19 20 21 18 20 17 7
6 1 6 6 2 3 5 4 3 2 3 6 5 4 10 7 17 10 11 11 14 18 15 15 13 13 13 16 18 18 18 18 21 21 19 16 18 19 20 20 20 17 6 5
6 2 5 2 4 1 1 5 1 4 1 2 5 4 3 8 15 16 12 14 15 13 13 11 10 11 16 19 18 15 18 17 16 17 15 17 16 18 21 22 14 6 8 11
2 4 2 5 1 8 5 4 1 5 2 4 6 9 5 6 16 12 8 13 13 7 9 9 11 11 13 13 14 13 15 15 16 14 14 16 20 20 20 17 12 7 10 11
4 1 4 2 6 3 3 2 6 4 2 2 4 7 3 5 9 7 5 6 8 8 10 13 14 12 10 10 11 12 12 14 17 15 16 19 21 20 18 14 6 5 8 6
3 2 5 5 3 1 4 4 4 3 2 2 3 13 3 8 2 2 5 9 10 11 15 18 19 16 12 16 18 18 17 17 15 14 17 21 21 20 13 4 2 2 4 5
1 2 6 7 4 4 4 1 5 6 2 10 8 10 4 14 17 5 9 12 15 16 18 17 19 20 19 22 21 19 17 16 13 14 18 19 19 15 8 6 7 8 9 13
3 2 3 7 12 7 10 5 7 3 9 9 24 28 28 25 17 11 14 14 16 17 17 16 18 19 21 20 19 18 17 13 12 15 17 15 12 11 11 12 12 13 12 11
3 3 5 10 17 18 20 22 17 15 17 13 23 19 21 17 5 10 13 14 18 17 16 15 16 17 18 20 20 19 16 12 12 13 11 6 6 7 8 9 9 8 8 8
2 4 2 8 7 8 18 21 22 19 15 22 24 26 13 4 6 12 17 17 16 13 12 14 17 19 20 19 19 17 16 18 12 8 7 5 2 4 5 7 7 8 11 10
2 2 1 7 5 14 15 7 5 4 7 9 16 18 4 6 16 16 13 11 7 9 13 17 19 20 19 19 18 21 18 13 12 11 8 9 10 10 8 9 9 9 7 5
5 5 3 7 7 5 6 5 11 15 21 17 15 11 6 11 14 13 3 4 10 12 16 17 16 19 19 20 20 18 13 12 10 10 9 4 2 5 6 6 7 7 6 9
6 7 3 5 6 9 17 13 1 4 10 8 11 4 11 13 7 6 6 5 10 15 15 14 15 17 19 19 18 12 12 8 4 2 5 7 7 7 7 9 9 7 8 9
7 6 3 3 7 9 9 2 1 1 19 4 3 14 16 18 20 14 9 12 14 12 13 16 17 16 17 20 16 5 10 7 10 8 10 8 8 9 9 8 9 7 8 8
1 1 11 12 10 12 16 12 3 3 13 6 8 10 16 11 4 6 9 16 9 9 11 12 13 15 18 18 13 12 11 7 6 7 7 7 9 8 7 8 7 8 8 8
6 6 8 3 5 12 6 3 4 10 6 12 14 12 4 5 7 10 16 14 10 13 12 11 13 14 13 12 9 11 9 4 7 8 8 9 8 9 8 8 10 10 8 12
9 15 6 11 12 7 5 13 14 10 14 14 6 7 6 2 13 16 15 13 11 12 12 10 10 10 8 7 5 5 4 8 7 7 9 9 9 8 7 9 11 10 12 13
6 6 13 9 12 25 16 23 18 10 4 1 7 8 1 12 16 21 17 13 13 12 12 7 8 10 12 13 14 9 5 4 6 8 9 8 8 9 8 8 9 10 12 14
11 3 7 16 24 23 22 21 9 4 12 10 5 3 10 14 21 21 17 14 15 14 12 8 12 13 13 15 11 4 4 4 6 7 8 8 8 9 9 8 9 10 10 9
9 15 14 24 22 20 11 12 17 17 12 7 11 14 15 15 20 17 18 16 15 15 12 12 13 12 13 11 9 6 5 3 5 8 8 10 11 10 9 12 12 10 12 13
Wind_Direction
21 69 54 20 30 132 203 260 308 279 272 348 337 324 352 7 45 31 29 53 151 170 301 316 206 188 176 188 197 207 216 226 209 222 239 255 255 264 260 254 249 247 242 239
59 74 354 104 65 70 1 334 330 303 289 349 343 356 357 26 44 50 62 69 92 109 85 81 115 151 175 188 202 209 226 231 227 221 258 271 301 299 282 280 274 261 254 246
97 72 67 108 40 21 345 306 300 292 329 46 351 25 24 32 59 52 44 50 71 77 93 96 114 159 180 195 205 223 254 285 285 273 288 304 302 291 295 300 296 286 269 263
72 30 82 62 49 19 320 156 312 299 340 258 12 211 19 349 45 38 22 24 26 16 350 195 196 201 216 271 306 309 327 329 338 342 326 319 303 297 288 290 287 295 291 277
16 50 61 51 348 320 269 327 302 259 197 132 1 42 341 14 45 34 22 21 353 287 270 299 310 339 19 18 25 29 44 68 45 22 5 346 327 309 295 295 295 290 290 285
42 327 45 334 329 1 320 7 51 59 95 85 39 15 4 360 360 54 21 350 322 320 310 328 352 18 38 40 40 32 24 15 9 1 354 339 326 326 322 313 305 296 286 291
352 16 337 21 356 358 11 27 336 257 13 217 248 261 139 15 86 40 7 355 357 13 32 34 45 46 41 28 15 9 5 354 355 350 349 346 340 332 323 313 305 305 310 323
30 320 11 357 1 310 5 60 81 316 321 305 322 199 167 114 69 26 359 11 30 31 39 49 43 43 25 8 3 0 356 342 344 341 335 333 334 328 316 309 311 305 289 138
10 304 325 306 342 357 354 53 124 101 34 306 292 311 237 170 13 27 49 31 23 32 36 40 27 12 5 358 349 348 339 322 326 323 319 325 319 321 319 314 303 258 156 143
13 312 302 306 51 40 83 126 9 34 308 285 304 302 274 57 2 14 32 21 9 1 3 349 337 334 346 339 330 319 324 318 315 315 325 326 320 315 310 304 287 209 164 147
34 53 298 332 33 346 5 46 70 104 129 256 293 258 198 91 13 14 27 2 354 324 307 302 296 291 292 310 309 308 319 322 328 330 326 322 318 314 312 304 277 186 160 167
17 107 306 276 137 12 112 112 91 88 309 271 249 274 199 106 20 107 3 349 332 314 303 299 300 295 306 329 329 330 325 326 318 314 320 318 318 321 317 330 117 126 317 348
137 12 337 338 62 45 69 132 120 109 109 231 249 263 185 293 343 10 332 329 323 309 315 314 328 327 328 324 318 310 312 312 309 316 319 322 329 334 338 18 35 36 26 20
102 137 189 250 279 284 285 222 200 226 265 261 249 267 280 289 311 329 322 307 304 314 324 325 327 326 314 306 302 303 305 310 316 323 327 335 354 24 53 43 29 28 18 1
80 250 216 249 271 281 281 281 270 238 242 245 267 269 272 283 269 291 286 298 309 311 328 331 321 318 315 311 312 308 310 316 321 328 339 357 84 59 9 3 11 346 295 303
21 266 281 285 279 297 290 274 262 265 252 242 255 268 271 198 292 306 304 294 297 332 332 325 315 310 323 331 329 325 324 323 322 325 333 293 291 321 287 301 293 284 283 296
245 232 321 280 328 321 300 288 195 217 237 245 275 284 185 311 317 306 291 328 347 334 326 316 325 334 336 331 327 316 312 317 322 323 319 315 333 314 316 301 299 299 313 331
187 166 185 278 343 273 264 284 266 257 273 267 267 256 230 292 301 290 292 1 341 326 319 326 338 333 328 322 317 315 330 344 356 28 25 5 299 294 328 352 355 339 339 339
170 158 215 242 224 296 298 295 319 246 271 273 257 251 288 309 317 314 65 359 321 311 325 343 333 330 328 328 327 334 340 346 38 301 291 336 347 358 357 350 344 339 332 328
75 78 216 188 266 275 251 272 34 110 286 266 186 308 310 325 301 310 351 320 305 329 335 327 327 326 326 321 324 330 336 308 323 353 356 357 357 351 348 348 338 327 326 320
229 174 237 250 259 266 263 268 291 268 301 204 293 272 304 274 294 360 305 287 297 316 320 321 325 329 320 318 313 312 309 303 359 351 325 338 354 354 349 337 332 330 334 333
239 255 250 179 236 282 210 159 237 282 270 313 293 286 266 70 345 289 281 286 300 317 321 321 319 318 324 332 349 357 24 2 315 322 355 347 346 342 344 345 341 341 335 328
251 218 238 206 227 256 223 263 283 299 299 293 253 112 107 31 271 284 299 288 292 305 303 310 316 328 327 340 3 348 293 298 344 350 345 339 337 341 347 346 340 332 331 332
251 229 254 279 264 272 283 293 302 301 292 85 83 92 23 294 301 295 288 288 300 302 305 301 303 300 302 306 318 315 337 351 346 343 338 340 339 334 324 335 333 331 333 332
213 223 255 261 279 283 278 286 311 72 74 64 51 327 295 301 300 295 291 295 297 298 300 277 279 285 295 304 312 324 333 339 336 338 341 336 325 320 319 328 330 331 327 324
215 246 259 269 277 266 311 67 75 70 44 12 308 309 304 288 289 299 298 292 293 300 290 290 286 281 296 305 298 300 311 314 326 324 332 327 327 328 333 334 330 333 339 337